Regional Weather Roundup
Issued by NWS State College, PA

Home | Current Version | Previous Version | Graphics & Text | Print | Product List | Glossary On
Versions: 1 2 3 4 5 6 7 8 9 10 11 12 13 14 15 16 17 18 19 20 21 22 23 24 25 26 27 28 29 30 31 32 33 34 35 36 37 38 39 40 41 42 43 44 45 46 47 48 49 50
518
ASUS41 KCTP 112010
RWRCTP

REGIONAL WEATHER ROUNDUP
NATIONAL WEATHER SERVICE STATE COLLEGE PA
300 PM EST MON DEC 11 2017

Note: "fair" indicates few or no clouds below 12,000 feet with no
significant weather and/or obstructions to visibility.

* = STATION THAT DOES NOT REPORT PRECIPITATION /E.G. RAIN...SNOW...ETC/
    THUNDER OR FOG.

PAZ002>004-007>009-013>016-020>023-029>032-112100-
WESTERN PENNSYLVANIA

CITY           SKY/WX    TMP DP  RH WIND       PRES   REMARKS
ERIE           LGT SNOW  30  22  72 S6        29.91F
MEADVILLE      FLURRIES  28  21  75 VRB5      29.88F
FRANKLIN*      FLURRIES  29  19  66 S8        29.89F
NEW CASTLE     LGT RAIN  33  21  61 S5        29.91F
BEAVER COUNTY  CLOUDY    32  21  64 S7        29.90F
BUTLER*        LGT RAIN  34  20  56 S6        29.91S
PITTSBURGH INT CLOUDY    37  21  52 S7        29.90F
PITTSBURGH     CLOUDY    37  20  50 SW8       29.89F
INDIANA*       CLOUDY    36  21  55 W6        29.94F
LATROBE        PTSUNNY   37  23  56 SW16      29.92F
WASHINGTON CO* CLOUDY    38  20  48 S12       29.92F
$$

PAZ004>006-010>012-017>019-024>028-033>037-041-042-045-046-049>053-112100-
CENTRAL PENNSYLVANIA

CITY           SKY/WX    TMP DP  RH WIND       PRES   REMARKS
BRADFORD       CLOUDY    26  20  77 SW5       29.86F
DUBOIS         CLOUDY    30  18  60 S3        29.87F
CLEARFIELD     CLOUDY    33  19  56 S5        29.91F
JOHNSTOWN      CLOUDY    33  21  61 S8        29.84F
ALTOONA        CLOUDY    39  21  48 S7        29.91F
STATE COLLEGE  CLOUDY    36  19  51 SW7       29.93F
WILLIAMSPORT   CLOUDY    37  21  52 W5        29.97F
SELINSGROVE    MOSUNNY   38  22  52 CALM      29.99F
FT INDIANTOWN  MOSUNNY   39  20  47 SW8       29.98F
CAPITAL CITY   SUNNY     42  20  41 CALM      29.98F
HARRISBURG     PTSUNNY   42  22  44 VRB3      29.98F
YORK           SUNNY     41  24  51 W5        29.96F
$$

PAZ038>040-043-044-047-048-054-055-060>062-067>071-112100-
EASTERN PENNSYLVANIA

CITY           SKY/WX    TMP DP  RH WIND       PRES   REMARKS
SCRANTON       CLOUDY    34  20  56 SW9       29.97R
MOUNT POCONO   CLOUDY    28  19  69 W12       29.92R
ALLENTOWN      CLOUDY    38  20  48 W8        30.00R
QUAKERTOWN*    PTCLDY    37  21  52 W6        30.00S
READING        PTSUNNY   39  24  55 CALM      29.99F
LANCASTER      SUNNY     39  24  55 NW5       29.98F
COATESVILLE    CLEAR     37  23  56 NW7       29.97F
POTTSTOWN      CLOUDY    37  21  52 NW6       30.02S
BLUE BELL      SUNNY     37  23  56 NW6       30.01F
DOYLESTOWN     CLOUDY    38  21  50 W7        30.00R
WILLOW GROVE   NOT AVBL
NORTH PHILA    MOSUNNY   42  23  46 NW12      30.01F
PHILADELPHIA   PTSUNNY   41  21  44 W7G20     30.01F
$$




USA.gov is the U.S. government's official web portal to all federal, state and local government web resources and services.